Stolt Dipper — ZCMY3 — position and weather

sailwx.info

Track history (hours):
 
Tides and Currents Weather Stations Pressure Air Temp Water Temp Dewpoint Dewpoint Depression Visibility Wind Speed Wind Dir Waves Ship Positions

Stolt Dipper

Last reported at 2014-Jul-29 05:14 UTC. Time now 2014-Jul-31 09:25 UTC.
Position N 52°33' W 005°20'.

Length 96 m; draft 5.1 m.

Type: Ship. MMSI: 319036000.

Date/timePositionNaut miles runAvg speedWind from/ knotsBaromVisibWave heightAir tempDewpointWater temp
2014-Jul-29 05:14N 52°33' W 005°20'811.5
2014-Jul-29 04:32N 52°26' W 005°25'1111.1
2014-Jul-29 03:33N 52°16' W 005°31'1510.7
2014-Jul-29 02:09N 52°02' W 005°39'232 9.4
2014-Jul-28 01:26N 49°44' W 000°42'1314.1
2014-Jul-28 00:33N 49°37' W 000°27'1313.1
2014-Jul-27 23:33N 49°30' W 000°09'1212.0
2014-Jul-27 22:34N 49°26' E 000°08'1212.0
2014-Jul-27 21:33N 49°28' E 000°26'8 7.0
2014-Jul-27 20:25N 49°27' E 000°38'0 0.0
2014-Jul-26 20:33N 49°27' E 000°39'1111.1
2014-Jul-26 19:34N 49°26' E 000°22'1413.9
2014-Jul-26 18:33N 49°28' E 000°00'1110.6
2014-Jul-26 17:34N 49°33' W 000°13'4713.4
2014-Jul-26 14:03N 50°12' E 000°27'1313.4
2014-Jul-26 13:06N 50°22' E 000°41'712.8
2014-Jul-26 12:33N 50°28' E 000°38'1010.4
2014-Jul-26 11:34N 50°38' E 000°44'1212.0
2014-Jul-26 10:31N 50°45' E 000°60'1812.3
2014-Jul-26 09:05N 50°57' E 001°21'714.2
2014-Jul-26 08:33N 51°03' E 001°29'1515.4
2014-Jul-26 07:33N 51°14' E 001°46'1515.1
2014-Jul-26 06:33N 51°26' E 001°59'1413.7
2014-Jul-26 05:32N 51°37' E 002°14'4611.5
2014-Jul-26 01:32N 52°03' E 003°15'1511.8
2014-Jul-26 00:15N 52°04' E 003°39'912.6
2014-Jul-25 23:34N 52°03' E 003°53'1212.0
2014-Jul-25 22:33N 51°57' E 004°11'6 1.6
2014-Jul-25 19:07N 51°53' E 004°16'0 0.0
2014-Jul-25 18:07N 51°53' E 004°16'0 0.0
2014-Jul-25 17:25N 51°53' E 004°16'0 0.0
2014-Jul-25 14:16N 51°53' E 004°16'0 0.0
2014-Jul-25 11:31N 51°53' E 004°16'0 0.0
2014-Jul-25 10:22N 51°53' E 004°16'0 0.0
2014-Jul-25 09:25N 51°53' E 004°16'0 0.0
2014-Jul-25 08:31N 51°53' E 004°16'0 0.0
2014-Jul-25 07:31N 51°53' E 004°16'0 0.0
2014-Jul-25 06:31N 51°53' E 004°16'0 0.0
2014-Jul-25 05:31N 51°53' E 004°16'0 0.0
2014-Jul-25 04:31N 51°53' E 004°16'0 0.0
2014-Jul-25 03:22N 51°53' E 004°16'0 0.0
2014-Jul-25 02:13N 51°53' E 004°16'0 0.0
2014-Jul-25 00:25N 51°53' E 004°16'0 0.0
2014-Jul-24 22:33N 51°53' E 004°16'6 6.1
2014-Jul-24 21:33N 51°57' E 004°10'1111.3
2014-Jul-24 20:33N 51°59' E 003°52'6 5.3
2014-Jul-24 19:22N 51°57' E 003°42'0 0.0
2014-Jul-24 18:31N 51°57' E 003°42'0 0.0
2014-Jul-24 17:25N 51°57' E 003°42'0 0.0
2014-Jul-24 16:28N 51°57' E 003°42'0 0.0
2014-Jul-24 15:25N 51°57' E 003°42'0 0.1
2014-Jul-24 14:28N 51°57' E 003°42'0 0.0
2014-Jul-24 13:31N 51°57' E 003°42'0 0.0
2014-Jul-24 12:25N 51°57' E 003°42'0 0.2
2014-Jul-24 11:28N 51°57' E 003°42'0 0.0
2014-Jul-24 10:31N 51°57' E 003°42'0 0.0
2014-Jul-24 09:28N 51°57' E 003°42'0 0.0
2014-Jul-24 08:28N 51°57' E 003°42'0 0.0
2014-Jul-24 07:28N 51°57' E 003°42'0 0.0
2014-Jul-24 06:31N 51°57' E 003°42'0 0.0
2014-Jul-24 05:25N 51°57' E 003°42'0 0.0
2014-Jul-24 04:31N 51°57' E 003°42'0 0.1
2014-Jul-24 02:22N 51°57' E 003°42'0 0.0
2014-Jul-24 01:22N 51°57' E 003°42'0 0.0
2014-Jul-24 00:31N 51°57' E 003°42'0 0.0
2014-Jul-23 23:31N 51°57' E 003°42'0 0.1
2014-Jul-23 22:28N 51°57' E 003°42'0 0.0
2014-Jul-23 21:31N 51°57' E 003°42'0 0.0
2014-Jul-23 20:25N 51°57' E 003°42'0 0.0
2014-Jul-23 19:25N 51°57' E 003°42'0 0.0
2014-Jul-23 18:31N 51°57' E 003°42'0 0.0
2014-Jul-23 17:31N 51°57' E 003°42'0 0.0
2014-Jul-23 16:28N 51°57' E 003°42'0 0.0
2014-Jul-23 15:19N 51°57' E 003°42'0 0.1
2014-Jul-23 14:31N 51°57' E 003°42'0 0.1
2014-Jul-23 13:31N 51°57' E 003°42'0 0.0
2014-Jul-23 12:28N 51°57' E 003°42'0 0.0
2014-Jul-23 11:25N 51°57' E 003°42'0 0.0
2014-Jul-23 08:07N 51°57' E 003°42'0 0.0
2014-Jul-23 06:22N 51°57' E 003°42'0 0.0
2014-Jul-23 05:28N 51°57' E 003°42'0 0.0
2014-Jul-23 04:31N 51°57' E 003°42'0 0.0
2014-Jul-23 03:22N 51°57' E 003°42'0 0.0
2014-Jul-23 02:25N 51°57' E 003°42'0 0.1
2014-Jul-23 01:31N 51°57' E 003°42'0 0.0
2014-Jul-23 00:31N 51°57' E 003°42'0 0.0
2014-Jul-22 23:28N 51°57' E 003°42'0 0.1
2014-Jul-22 22:22N 51°57' E 003°42'0 0.1
2014-Jul-22 21:31N 51°57' E 003°42'0 0.0
2014-Jul-22 20:28N 51°57' E 003°42'0 0.0
2014-Jul-22 19:31N 51°57' E 003°42'0 0.0
2014-Jul-22 18:31N 51°57' E 003°42'0 0.0
2014-Jul-22 17:22N 51°57' E 003°42'0 0.0
2014-Jul-22 16:22N 51°57' E 003°42'0 0.0
2014-Jul-22 15:31N 51°57' E 003°42'0 0.0
2014-Jul-22 14:31N 51°57' E 003°42'0 0.0
2014-Jul-22 13:31N 51°57' E 003°42'0 0.0
2014-Jul-22 12:28N 51°57' E 003°42'0 0.0
2014-Jul-22 11:28N 51°57' E 003°42'0 0.0
2014-Jul-22 10:31N 51°57' E 003°42'0 0.1
2014-Jul-22 09:31N 51°57' E 003°42'0 0.1
2014-Jul-22 08:10N 51°57' E 003°42'0 0.0
2014-Jul-22 06:13N 51°57' E 003°42'0 0.0
2014-Jul-22 05:22N 51°57' E 003°42'0 0.0
2014-Jul-22 04:19N 51°57' E 003°42'0 0.0
2014-Jul-22 03:31N 51°57' E 003°42'7 7.4
2014-Jul-22 02:34N 51°55' E 003°31'1110.4
2014-Jul-22 01:33N 51°53' E 003°14'29 7.3
2014-Jul-21 21:33N 52°09' E 002°35'1513.3
2014-Jul-21 20:25N 52°02' E 002°14'112.8
2014-Jul-21 20:18N 52°01' E 002°12'912.1
2014-Jul-21 19:33N 52°00' E 001°57'1212.1
2014-Jul-21 18:33N 52°02' E 001°38'10 9.8
2014-Jul-21 17:33N 51°56' E 001°25'7 6.6
2014-Jul-21 16:33N 51°57' E 001°14'0 0.0
2014-Jul-21 15:33N 51°57' E 001°14'0 0.0
2014-Jul-21 14:33N 51°57' E 001°14'0 0.0
2014-Jul-21 13:33N 51°57' E 001°14'0 0.0
2014-Jul-21 12:33N 51°57' E 001°14'0 0.0
2014-Jul-21 11:33N 51°57' E 001°14'0 0.0
2014-Jul-21 10:33N 51°57' E 001°14'0 0.0
2014-Jul-21 09:33N 51°57' E 001°14'0 0.0
2014-Jul-21 08:33N 51°57' E 001°14'0 0.0
2014-Jul-21 07:33N 51°57' E 001°14'0 0.0
2014-Jul-21 06:32N 51°57' E 001°14'0 0.0
2014-Jul-21 05:32N 51°57' E 001°14'0 0.0
2014-Jul-21 04:32N 51°57' E 001°14'0 0.0
2014-Jul-21 03:33N 51°57' E 001°14'0 0.0
2014-Jul-21 02:32N 51°57' E 001°14'0 0.0
2014-Jul-21 01:32N 51°57' E 001°14'0 0.0
2014-Jul-21 00:33N 51°57' E 001°14'0 0.0
2014-Jul-20 23:33N 51°57' E 001°14'0 0.0
2014-Jul-20 22:30N 51°57' E 001°14'0 0.0
2014-Jul-20 21:33N 51°57' E 001°14'2 2.3
2014-Jul-20 20:34N 51°57' E 001°18'9 9.2
2014-Jul-20 19:33N 51°57' E 001°33'8 8.0
2014-Jul-20 18:33N 52°02' E 001°44'1312.7
2014-Jul-20 17:33N 52°02' E 002°04'4210.5
2014-Jul-20 13:32N 52°03' E 003°13'1313.1
2014-Jul-20 12:33N 52°04' E 003°34'1312.6
2014-Jul-20 11:32N 52°02' E 003°55'1211.8
2014-Jul-20 10:33N 51°57' E 004°11'7 5.7
2014-Jul-20 09:21N 51°54' E 004°22'0 0.0
2014-Jul-20 08:33N 51°54' E 004°22'0 0.0
2014-Jul-20 07:33N 51°54' E 004°22'0 0.0
2014-Jul-20 06:33N 51°54' E 004°22'0 0.0
2014-Jul-20 05:33N 51°54' E 004°22'0 0.0
2014-Jul-20 04:30N 51°54' E 004°22'0 0.0
2014-Jul-20 03:33N 51°54' E 004°22'0 0.0
2014-Jul-20 02:30N 51°54' E 004°22'0 0.0
2014-Jul-20 01:33N 51°54' E 004°22'0 0.0
2014-Jul-20 00:33N 51°54' E 004°22'0 0.0
2014-Jul-19 23:30N 51°54' E 004°22'0 0.0
2014-Jul-19 22:33N 51°54' E 004°22'0 0.0
2014-Jul-19 21:30N 51°54' E 004°22'0 0.0
2014-Jul-19 20:30N 51°54' E 004°22'0 0.0
2014-Jul-19 19:30N 51°54' E 004°22'0 0.0
2014-Jul-19 18:24N 51°54' E 004°22'0 0.0
2014-Jul-19 17:27N 51°54' E 004°22'0 0.0
2014-Jul-19 16:33N 51°54' E 004°22'0 0.0
2014-Jul-19 15:33N 51°54' E 004°22'0 0.0
2014-Jul-19 14:33N 51°54' E 004°22'3 3.1
2014-Jul-19 13:33N 51°54' E 004°16'1010.1
2014-Jul-19 12:33N 51°59' E 004°03'1110.8
2014-Jul-19 11:34N 52°03' E 003°46'4 3.9
2014-Jul-19 10:27N 52°07' E 003°44'0 0.1
2014-Jul-19 08:18N 52°07' E 003°44'0 0.0
2014-Jul-19 06:24N 52°07' E 003°44'0 0.1
2014-Jul-19 05:30N 52°07' E 003°44'  
Track history (hours):
 
Tides and Currents Weather Stations Pressure Air Temp Water Temp Dewpoint Dewpoint Depression Visibility Wind Speed Wind Dir Waves Ship Positions

Stolt Dipper

Last reported at 2014-Jul-29 05:14 UTC. Time now 2014-Jul-31 09:25 UTC.
Position N 52°33' W 005°20'.

Length 96 m; draft 5.1 m.

Type: Ship. MMSI: 319036000.

Date/timePositionNaut miles runAvg speedWind from/ knotsBaromVisibWave heightAir tempDewpointWater temp
2014-Jul-29 05:14N 52°33' W 005°20'811.5
2014-Jul-29 04:32N 52°26' W 005°25'1111.1
2014-Jul-29 03:33N 52°16' W 005°31'1510.7
2014-Jul-29 02:09N 52°02' W 005°39'232 9.4
2014-Jul-28 01:26N 49°44' W 000°42'1314.1
2014-Jul-28 00:33N 49°37' W 000°27'1313.1
2014-Jul-27 23:33N 49°30' W 000°09'1212.0
2014-Jul-27 22:34N 49°26' E 000°08'1212.0
2014-Jul-27 21:33N 49°28' E 000°26'8 7.0
2014-Jul-27 20:25N 49°27' E 000°38'0 0.0
2014-Jul-26 20:33N 49°27' E 000°39'1111.1
2014-Jul-26 19:34N 49°26' E 000°22'1413.9
2014-Jul-26 18:33N 49°28' E 000°00'1110.6
2014-Jul-26 17:34N 49°33' W 000°13'4713.4
2014-Jul-26 14:03N 50°12' E 000°27'1313.4
2014-Jul-26 13:06N 50°22' E 000°41'712.8
2014-Jul-26 12:33N 50°28' E 000°38'1010.4
2014-Jul-26 11:34N 50°38' E 000°44'1212.0
2014-Jul-26 10:31N 50°45' E 000°60'1812.3
2014-Jul-26 09:05N 50°57' E 001°21'714.2
2014-Jul-26 08:33N 51°03' E 001°29'1515.4
2014-Jul-26 07:33N 51°14' E 001°46'1515.1
2014-Jul-26 06:33N 51°26' E 001°59'1413.7
2014-Jul-26 05:32N 51°37' E 002°14'4611.5
2014-Jul-26 01:32N 52°03' E 003°15'1511.8
2014-Jul-26 00:15N 52°04' E 003°39'912.6
2014-Jul-25 23:34N 52°03' E 003°53'1212.0
2014-Jul-25 22:33N 51°57' E 004°11'6 1.6
2014-Jul-25 19:07N 51°53' E 004°16'0 0.0
2014-Jul-25 18:07N 51°53' E 004°16'0 0.0
2014-Jul-25 17:25N 51°53' E 004°16'0 0.0
2014-Jul-25 14:16N 51°53' E 004°16'0 0.0
2014-Jul-25 11:31N 51°53' E 004°16'0 0.0
2014-Jul-25 10:22N 51°53' E 004°16'0 0.0
2014-Jul-25 09:25N 51°53' E 004°16'0 0.0
2014-Jul-25 08:31N 51°53' E 004°16'0 0.0
2014-Jul-25 07:31N 51°53' E 004°16'0 0.0
2014-Jul-25 06:31N 51°53' E 004°16'0 0.0
2014-Jul-25 05:31N 51°53' E 004°16'0 0.0
2014-Jul-25 04:31N 51°53' E 004°16'0 0.0
2014-Jul-25 03:22N 51°53' E 004°16'0 0.0
2014-Jul-25 02:13N 51°53' E 004°16'0 0.0
2014-Jul-25 00:25N 51°53' E 004°16'0 0.0
2014-Jul-24 22:33N 51°53' E 004°16'6 6.1
2014-Jul-24 21:33N 51°57' E 004°10'1111.3
2014-Jul-24 20:33N 51°59' E 003°52'6 5.3
2014-Jul-24 19:22N 51°57' E 003°42'0 0.0
2014-Jul-24 18:31N 51°57' E 003°42'0 0.0
2014-Jul-24 17:25N 51°57' E 003°42'0 0.0
2014-Jul-24 16:28N 51°57' E 003°42'0 0.0
2014-Jul-24 15:25N 51°57' E 003°42'0 0.1
2014-Jul-24 14:28N 51°57' E 003°42'0 0.0
2014-Jul-24 13:31N 51°57' E 003°42'0 0.0
2014-Jul-24 12:25N 51°57' E 003°42'0 0.2
2014-Jul-24 11:28N 51°57' E 003°42'0 0.0
2014-Jul-24 10:31N 51°57' E 003°42'0 0.0
2014-Jul-24 09:28N 51°57' E 003°42'0 0.0
2014-Jul-24 08:28N 51°57' E 003°42'0 0.0
2014-Jul-24 07:28N 51°57' E 003°42'0 0.0
2014-Jul-24 06:31N 51°57' E 003°42'0 0.0
2014-Jul-24 05:25N 51°57' E 003°42'0 0.0
2014-Jul-24 04:31N 51°57' E 003°42'0 0.1
2014-Jul-24 02:22N 51°57' E 003°42'0 0.0
2014-Jul-24 01:22N 51°57' E 003°42'0 0.0
2014-Jul-24 00:31N 51°57' E 003°42'0 0.0
2014-Jul-23 23:31N 51°57' E 003°42'0 0.1
2014-Jul-23 22:28N 51°57' E 003°42'0 0.0
2014-Jul-23 21:31N 51°57' E 003°42'0 0.0
2014-Jul-23 20:25N 51°57' E 003°42'0 0.0
2014-Jul-23 19:25N 51°57' E 003°42'0 0.0
2014-Jul-23 18:31N 51°57' E 003°42'0 0.0
2014-Jul-23 17:31N 51°57' E 003°42'0 0.0
2014-Jul-23 16:28N 51°57' E 003°42'0 0.0
2014-Jul-23 15:19N 51°57' E 003°42'0 0.1
2014-Jul-23 14:31N 51°57' E 003°42'0 0.1
2014-Jul-23 13:31N 51°57' E 003°42'0 0.0
2014-Jul-23 12:28N 51°57' E 003°42'0 0.0
2014-Jul-23 11:25N 51°57' E 003°42'0 0.0
2014-Jul-23 08:07N 51°57' E 003°42'0 0.0
2014-Jul-23 06:22N 51°57' E 003°42'0 0.0
2014-Jul-23 05:28N 51°57' E 003°42'0 0.0
2014-Jul-23 04:31N 51°57' E 003°42'0 0.0
2014-Jul-23 03:22N 51°57' E 003°42'0 0.0
2014-Jul-23 02:25N 51°57' E 003°42'0 0.1
2014-Jul-23 01:31N 51°57' E 003°42'0 0.0
2014-Jul-23 00:31N 51°57' E 003°42'0 0.0
2014-Jul-22 23:28N 51°57' E 003°42'0 0.1
2014-Jul-22 22:22N 51°57' E 003°42'0 0.1
2014-Jul-22 21:31N 51°57' E 003°42'0 0.0
2014-Jul-22 20:28N 51°57' E 003°42'0 0.0
2014-Jul-22 19:31N 51°57' E 003°42'0 0.0
2014-Jul-22 18:31N 51°57' E 003°42'0 0.0
2014-Jul-22 17:22N 51°57' E 003°42'0 0.0
2014-Jul-22 16:22N 51°57' E 003°42'0 0.0
2014-Jul-22 15:31N 51°57' E 003°42'0 0.0
2014-Jul-22 14:31N 51°57' E 003°42'0 0.0
2014-Jul-22 13:31N 51°57' E 003°42'0 0.0
2014-Jul-22 12:28N 51°57' E 003°42'0 0.0
2014-Jul-22 11:28N 51°57' E 003°42'0 0.0
2014-Jul-22 10:31N 51°57' E 003°42'0 0.1
2014-Jul-22 09:31N 51°57' E 003°42'0 0.1
2014-Jul-22 08:10N 51°57' E 003°42'0 0.0
2014-Jul-22 06:13N 51°57' E 003°42'0 0.0
2014-Jul-22 05:22N 51°57' E 003°42'0 0.0
2014-Jul-22 04:19N 51°57' E 003°42'0 0.0
2014-Jul-22 03:31N 51°57' E 003°42'7 7.4
2014-Jul-22 02:34N 51°55' E 003°31'1110.4
2014-Jul-22 01:33N 51°53' E 003°14'29 7.3
2014-Jul-21 21:33N 52°09' E 002°35'1513.3
2014-Jul-21 20:25N 52°02' E 002°14'112.8
2014-Jul-21 20:18N 52°01' E 002°12'912.1
2014-Jul-21 19:33N 52°00' E 001°57'1212.1
2014-Jul-21 18:33N 52°02' E 001°38'10 9.8
2014-Jul-21 17:33N 51°56' E 001°25'7 6.6
2014-Jul-21 16:33N 51°57' E 001°14'0 0.0
2014-Jul-21 15:33N 51°57' E 001°14'0 0.0
2014-Jul-21 14:33N 51°57' E 001°14'0 0.0
2014-Jul-21 13:33N 51°57' E 001°14'0 0.0
2014-Jul-21 12:33N 51°57' E 001°14'0 0.0
2014-Jul-21 11:33N 51°57' E 001°14'0 0.0
2014-Jul-21 10:33N 51°57' E 001°14'0 0.0
2014-Jul-21 09:33N 51°57' E 001°14'0 0.0
2014-Jul-21 08:33N 51°57' E 001°14'0 0.0
2014-Jul-21 07:33N 51°57' E 001°14'0 0.0
2014-Jul-21 06:32N 51°57' E 001°14'0 0.0
2014-Jul-21 05:32N 51°57' E 001°14'0 0.0
2014-Jul-21 04:32N 51°57' E 001°14'0 0.0
2014-Jul-21 03:33N 51°57' E 001°14'0 0.0
2014-Jul-21 02:32N 51°57' E 001°14'0 0.0
2014-Jul-21 01:32N 51°57' E 001°14'0 0.0
2014-Jul-21 00:33N 51°57' E 001°14'0 0.0
2014-Jul-20 23:33N 51°57' E 001°14'0 0.0
2014-Jul-20 22:30N 51°57' E 001°14'0 0.0
2014-Jul-20 21:33N 51°57' E 001°14'2 2.3
2014-Jul-20 20:34N 51°57' E 001°18'9 9.2
2014-Jul-20 19:33N 51°57' E 001°33'8 8.0
2014-Jul-20 18:33N 52°02' E 001°44'1312.7
2014-Jul-20 17:33N 52°02' E 002°04'4210.5
2014-Jul-20 13:32N 52°03' E 003°13'1313.1
2014-Jul-20 12:33N 52°04' E 003°34'1312.6
2014-Jul-20 11:32N 52°02' E 003°55'1211.8
2014-Jul-20 10:33N 51°57' E 004°11'7 5.7
2014-Jul-20 09:21N 51°54' E 004°22'0 0.0
2014-Jul-20 08:33N 51°54' E 004°22'0 0.0
2014-Jul-20 07:33N 51°54' E 004°22'0 0.0
2014-Jul-20 06:33N 51°54' E 004°22'0 0.0
2014-Jul-20 05:33N 51°54' E 004°22'0 0.0
2014-Jul-20 04:30N 51°54' E 004°22'0 0.0
2014-Jul-20 03:33N 51°54' E 004°22'0 0.0
2014-Jul-20 02:30N 51°54' E 004°22'0 0.0
2014-Jul-20 01:33N 51°54' E 004°22'0 0.0
2014-Jul-20 00:33N 51°54' E 004°22'0 0.0
2014-Jul-19 23:30N 51°54' E 004°22'0 0.0
2014-Jul-19 22:33N 51°54' E 004°22'0 0.0
2014-Jul-19 21:30N 51°54' E 004°22'0 0.0
2014-Jul-19 20:30N 51°54' E 004°22'0 0.0
2014-Jul-19 19:30N 51°54' E 004°22'0 0.0
2014-Jul-19 18:24N 51°54' E 004°22'0 0.0
2014-Jul-19 17:27N 51°54' E 004°22'0 0.0
2014-Jul-19 16:33N 51°54' E 004°22'0 0.0
2014-Jul-19 15:33N 51°54' E 004°22'0 0.0
2014-Jul-19 14:33N 51°54' E 004°22'3 3.1
2014-Jul-19 13:33N 51°54' E 004°16'1010.1
2014-Jul-19 12:33N 51°59' E 004°03'1110.8
2014-Jul-19 11:34N 52°03' E 003°46'4 3.9
2014-Jul-19 10:27N 52°07' E 003°44'0 0.1
2014-Jul-19 08:18N 52°07' E 003°44'0 0.0
2014-Jul-19 06:24N 52°07' E 003°44'0 0.1
2014-Jul-19 05:30N 52°07' E 003°44'  

Dump ship's entire track history